Regional Weather Roundup
Issued by NWS

Home | Current Version | Previous Version | Text Only | Print | Product List | Glossary On
Versions: 1 2 3 4 5 6 7 8 9 10 11 12 13 14 15 16 17 18 19 20 21 22 23 24 25 26 27 28 29 30 31 32 33 34 35 36 37 38 39 40 41 42 43 44 45 46 47 48 49 50
000
ASUS44 KMEG 240210
RWRTN
TENNESSEE HOURLY STATE WEATHER ROUNDUP
NATIONAL WEATHER SERVICE MEMPHIS TN
800 PM CST SUN NOV 23 2014

TNZ002-004-019-021-049-052-054-088>092-240300-
WEST TENNESSEE

CITY           SKY/WX    TMP DP  RH WIND       PRES   REMARKS
MEMPHIS INTL   CLOUDY    62  59  90 S10G21    29.47R
NWS MEMPHIS      N/A     61 N/A N/A MISG        N/A
JACKSON        CLOUDY    61  57  87 SW15G24   29.45R
DYERSBURG      CLOUDY    57  48  72 SW8G23    29.43R
UNION CITY     CLOUDY    57  57 100 SW12      29.37R
PARIS          CLOUDY    57  55  94 SW20      29.39R
HUNTINGDON     CLOUDY    58  56  93 SW15G25   29.41R
LEXINGTON      CLOUDY    61  57  88 SW17      29.44R
SAVANNAH       CLOUDY    61  61 100 S13       29.49R
$$

TNZ008-025-027-028-033-062-065-066-240300-
NORTH MIDDLE TENNESSEE

CITY           SKY/WX    TMP DP  RH WIND       PRES   REMARKS
NASHVILLE      LGT RAIN  61  59  94 SW17G30   29.40R
CLARKSVILLE    LGT RAIN  59  57  93 SW9       29.34S
SMYRNA         LGT RAIN  61  58  90 SW15G24   29.43R FOG
COOKEVILLE     CLOUDY    61  55  82 S14       29.46S
CROSSVILLE     LGT RAIN  58  53  84 S15G24    29.53R
$$

TNZ061-075-076-078-094-096-097-240300-
SOUTH MIDDLE TENNESSEE

CITY           SKY/WX    TMP DP  RH WIND       PRES   REMARKS
FAYETTEVILLE   CLOUDY    61  55  82 N14       29.53R
TULLAHOMA      CLOUDY    59  55  88 S22       29.51R
WINCHESTER     CLOUDY    61  55  82 S17G30    29.53R
MCMINNVILLE    CLOUDY    61  59  94 S15G25    29.48R
SHELBYVILLE    CLOUDY    61  61 100 S25       29.48R
$$

TNZ017-018-042-046-047-240300-
NORTHEAST TENNESSEE

CITY           SKY/WX    TMP DP  RH WIND       PRES   REMARKS
TRI CITIES     CLOUDY    57  52  83 CALM      29.60F
ELIZABETHTON   PTCLDY    54  48  82 NE13G26   29.60F
$$

TNZ012-013-036-069-073-074-240300-
CENTRAL EAST TENNESSEE

CITY           SKY/WX    TMP DP  RH WIND       PRES   REMARKS
KNOXVILLE      CLOUDY    63  53  70 S18G29    29.56R
OAK RIDGE      CLOUDY    54  53  97 CALM      29.58S
GATLINBURG     MOCLDY    57  50  77 CALM      29.56R
MORRISTOWN     MOCLDY    55  52  88 CALM      29.58R
$$

TNZ083-085-099-240300-
SOUTHEAST TENNESSEE

CITY           SKY/WX    TMP DP  RH WIND       PRES   REMARKS
CHATTANOOGA    CLOUDY    60  55  83 S10G20    29.60R
$$

SKY/WX REPORTED AS FAIR MEANS FEW OR NO CLOUDS BELOW
12 THOUSAND FEET.




USA.gov is the U.S. government's official web portal to all federal, state and local government web resources and services.